Location: Newark
(41.9831°N, 91.6686°W)
Time: 11:12:35
(UTC+00:00)

N. Korean satellite - Visible Passes

Search period start: 14 October 2019 00:00
Search period end: 24 October 2019 00:00
Orbit: 455 x 508 km, 97.2° (Epoch: 13 October)

Date Brightness Start Highest point End Pass type
(mag) Time Alt. Az. Time Alt. Az. Time Alt. Az.
15 Oct 10.2 00:16:24 10° SW 00:18:13 14° W 00:20:03 10° WNW visible
15 Oct 8.2 11:40:23 10° NNE 11:43:46 40° E 11:47:12 10° S visible
15 Oct 9.0 23:49:47 10° SSW 23:52:46 28° W 23:55:47 10° NW visible
16 Oct 9.7 11:15:41 10° NE 11:18:23 20° E 11:21:05 10° SE visible
19 Oct 9.9 00:08:03 10° SW 00:10:21 17° W 00:12:41 10° NW visible
19 Oct 8.7 11:32:41 10° NNE 11:35:58 32° E 11:39:17 10° SSE visible
19 Oct 8.5 23:41:46 10° SSW 23:44:55 35° W 23:48:07 10° NNW visible
20 Oct 10.0 11:08:11 10° NE 11:10:32 16° E 11:12:55 10° SE visible
22 Oct 10.6 00:27:32 10° W 00:27:58 10° W 00:28:25 10° W visible
22 Oct 7.5 11:49:54 10° NNE 11:53:30 56° E 11:57:07 10° S visible
22 Oct 9.5 23:59:48 10° SW 00:02:27 21° W 00:05:10 10° NW visible
23 Oct 9.1 11:25:00 10° NE 11:28:08 26° E 11:31:16 10° SSE visible
